Weather Service Report


140 
ASUS44 KLUB 030010
RWRTX 
WEST TEXAS WEATHER ROUNDUP
NATIONAL WEATHER SERVICE LUBBOCK TX
700 PM CDT THU JUL 02 2015

NOTE: "FAIR" INDICATES FEW OR NO CLOUDS BELOW 12,000 FEET WITH NO
SIGNIFICANT WEATHER AND/OR OBSTRUCTIONS TO VISIBILITY.

TXZ004-006>008-010-012-014-016-OKZ002-030100-
TEXAS PANHANDLE/OKLAHOMA PANHANDLE
  
CITY           SKY/WX    TMP DP  RH WIND       PRES   REMARKS
AMARILLO       MOSUNNY   86  60  41 S12       29.99F                  
BORGER         MOSUNNY   89  62  40 SW10      29.94F                  
CANADIAN       SUNNY     88  69  53 SW3       29.90S                  
DALHART        MOSUNNY   90  56  31 N10       30.02F                  
DUMAS          PTSUNNY   88  59  37 N7        29.99F                  
GUYMON         MOSUNNY   90  58  33 N10       29.94F                  
HEREFORD       PTSUNNY   89  61  39 MISG      30.00F                  
PAMPA          SUNNY     86  59  39 SW9       29.96F                  
PERRYTON       PTSUNNY   79  63  56 NE26G41   29.99R                  
$$

TXZ026-029-035-045-048-030100-
SOUTHERN PANHANDLE/SOUTH PLAINS/ROLLING PLAINS
  
CITY           SKY/WX    TMP DP  RH WIND       PRES   REMARKS
CHILDRESS      PTSUNNY   88  68  51 S13       29.88F                  
SEMINOLE       SUNNY     90  56  32 SE10G16   29.97S                  
LUBBOCK        CLOUDY    86  61  42 SE14      29.97F                  
PLAINVIEW      CLOUDY    84  64  50 S9        29.97F                  
SNYDER         MOSUNNY   87  65  47 SE12      29.94F                  
$$

TXZ052-054-060>062-072-078-127-140-154-169-030100-
PERMIAN BASIN/CONCHO VALLEY/BIG COUNTRY/EDWARDS PLATEAU  
  
CITY           SKY/WX    TMP DP  RH WIND       PRES   REMARKS
ABILENE        MOSUNNY   90  62  39 S15G24    29.92F                  
BIG SPRING     SUNNY     89  59  36 SE13      29.96S                  
BRADY          SUNNY     88  63  42 N15       29.94F                  
BROWNWOOD      MOSUNNY   90  63  40 S14       29.93F HAZE             
JUNCTION       MOSUNNY   87  64  46 S10G18    29.94F                  
MIDLAND        MOSUNNY   89  61  38 SE14      29.92F                  
ODESSA         MOSUNNY   89  60  37 S15G23    29.93F                  
SAN ANGELO     SUNNY     87  63  44 S14       29.93F                  
SONORA         MOSUNNY   84  64  51 S13       29.99F                  
SWEETWATER     MOSUNNY   87  63  44 SE13      29.96F                  
WINK           MOSUNNY   93  58  30 SE14      29.88F                  
$$

TXZ055-058-074-075-080-082-030100-
FAR WEST/SOUTHWEST MOUNTAINS/TRANS PECOS
  
CITY           SKY/WX    TMP DP  RH WIND       PRES   REMARKS
ALPINE         SUNNY     89  57  34 E16       30.04F                  
DRYDEN           N/A     86  66  51 SE13G25   29.89F                  
EL PASO        PTSUNNY  101  47  16 SW8       29.88F HX  97           
FORT STOCKTON  SUNNY     89  61  38 SE20      29.91F                  
GUADALUPE PASS CLOUDY    83  52  34 E22       30.08F                  
MARFA          MOSUNNY  N/A N/A N/A NE13G21   30.03F                  
PECOS          SUNNY     92  55  28 E12       29.86F                  
$$

TXZ014-016-019-021>030-083-030100
TEXAS TECH WEST TEXAS MESONET/TEXAS PANHANDLE/NORTHERN SOUTH PLAINS
  
CITY           SKY/WX    TMP DP  RH WIND       PRES   REMARKS
ABERNATHY 5ENE   N/A     84  60  44 SE9       29.99F                  
AMARILLO 9NNE    N/A     87  61  42 S3        29.96F                  
AMARILLO 7SSE    N/A     86  62  43 S2        30.00F                  
AMHERST 1NE      N/A     87  57  35 E13       29.98F                  
BOOTLEG 11WNW    N/A     84  58  41 E6        30.07F                  
CANADIAN 6E      N/A     83  71  65 NE3       29.90R                  
CAPROCK CYN SP   N/A     86  65  49 S7        29.93F                  
CHILDRESS 2NNE   N/A     88  67  50 S9        29.87F                  
CLARENDON 2WSW   N/A     86  66  51 S7        29.94F                  
CLAUDE 12SW      N/A     84  66  53 SE10      29.98F                  
DIMMITT 2NE      N/A     87  59  38 SE7       30.01F                  
FLOYDADA 2NNE    N/A     85  59  40 S10       29.97F                  
FRIONA 2NE       N/A     86  59  39 E6        30.02F                  
GOODLETT 3W      N/A     89  66  45 S13       29.84F                  
HART 3N          N/A     85  64  50 E10       30.00F                  
HEREFORD 2NW     N/A     87  55  32 SE5       30.01F                  
MCLEAN 1E        N/A     85  65  50 S8        29.92F                  
MEMPHIS 1NE      N/A     89  67  48 SE5       29.88F                  
MULESHOE 2SSW    N/A     89  57  34 E14       29.99F                  
OLTON 6S         N/A     85  60  42 SE12      29.99S                  
PALO DURO SP     N/A     86  65  50 SE6       30.00F                  
PAMPA 2E         N/A     86  59  40 S10       29.96S                  
PLAINVIEW 1S     N/A     86  62  45 SE8       29.97F                  
SILVERTON 7ESE   N/A     84  64  51 SE8       29.97F                  
TULIA 2ENE       N/A     83  67  57 E9        29.99F                  
TURKEY 2WSW      N/A     88  65  46 S10       29.91F                  
UMBARGER 3NNE    N/A     87  60  39 S8        30.01F                  
$$

TXZ033>036-039>041-045>048-030100
TEXAS TECH WEST TEXAS MESONET/SOUTH PLAINS  
  
CITY           SKY/WX    TMP DP  RH WIND       PRES   REMARKS
AIKEN 3WSW       N/A     85  63  48 SE9       29.99S                  
ANDREWS 2NE      N/A     88  55  32 E13       29.95S                  
ANTON 6SSW       N/A     88  59  37 SE16      29.98R                  
BROWNFIELD 2S    N/A     88  55  32 SE12      29.97F                  
DENVR CTY 7WNW   N/A     86  51  30 SE9       29.97S                  
GAIL 2ESE        N/A     87  64  45 SE9       29.93S                  
LAMESA 2SE       N/A     87  61  40 SE12      29.96R                  
LEVELLAND 4S     N/A     85  56  36 SE13      29.98S                  
LUBBOCK 3WNW     N/A     85  59  41 S8        29.97F                  
MORTON 1ENE      N/A     85  58  40 SE14      29.98S                  
ODONNELL 1N      N/A     86  59  39 SE13      29.96F                  
PLAINS 3N        N/A     87  55  32 SE13      29.98S                  
RALLS 1SE        N/A     84  63  48 S10       29.98F                  
REESE CENTER     N/A     85  58  38 SE13      29.98S                  
SEAGRAVES 1SW    N/A     88  56  33 SE10      29.96S                  
SEMINOLE 2NNE    N/A     89  56  32 SE13      29.96R                  
SLATON 2NE       N/A     84  59  41 E8        29.98S                  
SNYDER 3E        N/A     87  64  45 SE9       29.93F                  
SUNDOWN 8SW      N/A     86  58  38 E9        29.98S                  
TAHOKA 3NNE      N/A     86  61  42 SE14      29.97S                  
WOLFFORTH 6SSW   N/A     85  61  43 SE12      29.98F                  
$$

TXZ031-032-036>038-042>044-030100-
TEXAS TECH WEST TEXAS MESONET/ROLLING PLAINS 
  
CITY           SKY/WX    TMP DP  RH WIND       PRES   REMARKS
ASPERMONT 3NE    N/A     88  65  46 S8        29.90F                  
FLUVANNA 3WNW    N/A     85  62  45 SE12      29.95S                  
GRAHAM 5SSW      N/A     86  60  42 SE13      29.96R                  
GUTHRIE 10WSW    N/A     89  63  42 S12       29.89F                  
HASKELL 1NW      N/A     91  59  34 S12       29.88F                  
JAYTON 1SSE      N/A     89  64  43 S9        29.91F                  
KNOX CITY 3NW    N/A     92  61  35 S14       29.87F                  
LK A HENRY 1NW   N/A     88  63  43 SE7       29.92F                  
NORTHFIELD 1S    N/A     89  67  49 S7        29.88F                  
ODELL 4ENE       N/A     88  65  47 S10       29.84F                  
PADUCAH 10SW     N/A     88  62  42 S12       29.88F                  
POST 1NE         N/A     85  63  47 S9        29.94F                  
RRING SPRGS 3N   N/A     84  65  52 S8        29.93F                  
SEYMOUR 3NW      N/A     90  62  39 S15       29.86F                  
SPUR 1W          N/A     85  63  46 SE8       29.92S                  
WEINERT 2NNE     N/A     90  66  44 S14       29.88F                  
WHITE RVR 6NE    N/A     86  63  45 SE10      29.94F                  
$$

TXZ052-054-060>062-072-078-127-140-154-169-030100-
TEXAS TECH WEST TEXAS MESONET/PERMIAN BASIN/
CONCHO VALLEY/BIG COUNTRY/EDWARDS PLATEAU
  
CITY           SKY/WX    TMP DP  RH WIND       PRES   REMARKS
COYANOSA 2N      N/A     93  61  34 E18       29.87F                  
JUNCTION 1SSW    N/A     86  66  51 SE10      29.95S                  
MERTZON 3NNE     N/A     83  65  54 S12       29.95F                  
SAN ANGELO 7NW   N/A     86  62  44 SE14      29.94S                  
STRLNG CT 4WSW   N/A     87  64  47 SE13      29.94F                  
ST LAWRNCE 5SW   N/A     83  63  50 SE14      29.94S                  
SWEETWATR 11SW   N/A     84  65  52 SE13      29.96F                  
WALL 1E          N/A     88  60  39 S14       29.94F                  
$$

TXZ055-058-074-075-080-082-030100-
TEXAS TECH WEST TEXAS MESONET/FAR WEST/SOUTHWEST MOUNTAINS/TRANS PECOS
  
CITY           SKY/WX    TMP DP  RH WIND       PRES   REMARKS
PRSMN GAP BBNP   N/A     90  61  37 NE13      29.87F                  
$$

Return to Home page


Western Regional Climate Center, wrcc@dri.edu